Davenport, IA

5:43 PM CDT on July 26, 2016 (GMT -0500)
Davenport Municipal

Weather History for KDVN - September, 2013

Change the Weather History Date:

Wednesday, September 4, 2013

  Actual Average Record
Temperature  
Mean Temperature 67 °F 68 °F  
Max Temperature 86 °F 79 °F 95 °F (1954)
Min Temperature 48 °F 56 °F 42 °F (1997)
Degree Days  
Heating Degree Days 0 1  
Month to date heating degree days 3 4  
Since 1 July heating degree days 22 18  
Cooling Degree Days 2 4  
Month to date cooling degree days 13 16  
Year to date cooling degree days 786 720  
Growing Degree Days 16 (Base 50)    
Moisture  
Dew Point 56 °F    
Average Humidity 70    
Maximum Humidity 100    
Minimum Humidity 40    
Precipitation  
Precipitation 0.00 in 0.10 in 1.97 in (2008)
Month to date precipitation T 0.38  
Year to date precipitation 28.39 26.20  
Snow  
Snow 0.00 in - - ()
Month to date snowfall 0.0  
Since 1 July snowfall 0.0  
Since 1 September snowfall 0.0  
Snow Depth 0.00 in    
Sea Level Pressure  
Sea Level Pressure 30.12 in    
Wind  
Wind Speed 2 mph (WSW)    
Max Wind Speed 9 mph    
Max Gust Speed 12 mph    
Visibility 10 miles    
Events      
T = Trace of Precipitation, MM = Missing Value Source: NWS Daily Summary

Daily Weather History Graph

Daily Weather History Graph

Search for Another Location

Airport or City:

Trip Planner

Search our weather history database for the weather conditions in past years. The results will help you decide how hot, cold, wet, or windy it might be!

Date:

Astronomy

Sep. 04, 2013 Rise Set
Actual Time 6:31 AM CDT 7:30 PM CDT
Civil Twilight 6:03 AM CDT 7:58 PM CDT
Nautical Twilight 5:29 AM CDT 8:31 PM CDT
Astronomical Twilight 4:54 AM CDT 9:07 PM CDT
Moon 5:44 AM CDT (9/4) 6:49 PM CDT (9/4)
Length of Visible Light 13h 55m
Length of Day
12h 58m
Waning Crescent, 1% of the Moon is Illuminated
Sep 4
Waning Crescent
Sep 5
New
Sep 12
First Quarter
Sep 19
Full
Sep 26
Last Quarter

Hourly Weather History & Observations

Time (CDT) Temp. Heat Index Dew Point Humidity Pressure Visibility Wind Dir Wind Speed Gust Speed Precip Events Conditions
12:52 AM 54.0 °F - 51.1 °F 90% 30.08 in 10.0 mi Calm Calm - N/A   Clear
1:52 AM 51.1 °F - 48.9 °F 92% 30.09 in 10.0 mi Calm Calm - N/A   Clear
2:52 AM 51.1 °F - 48.0 °F 89% 30.09 in 10.0 mi Calm Calm - N/A   Clear
3:52 AM 48.9 °F - 46.9 °F 93% 30.10 in 10.0 mi Calm Calm - N/A   Clear
4:52 AM 48.0 °F - 46.0 °F 93% 30.11 in 10.0 mi Calm Calm - N/A   Clear
5:52 AM 48.9 °F - 48.0 °F 97% 30.12 in 10.0 mi Calm Calm - N/A   Clear
6:52 AM 48.9 °F - 48.0 °F 97% 30.13 in 6.0 mi Calm Calm - N/A   Clear
7:52 AM 59.0 °F - 55.0 °F 87% 30.16 in 10.0 mi Calm Calm - N/A   Clear
8:52 AM 66.0 °F - 55.0 °F 68% 30.16 in 10.0 mi West 4.6 mph - N/A   Clear
9:52 AM 71.1 °F - 55.9 °F 59% 30.15 in 10.0 mi WSW 3.5 mph - N/A   Clear
10:52 AM 77.0 °F - 55.9 °F 48% 30.15 in 10.0 mi Variable 5.8 mph - N/A   Clear
11:52 AM 79.0 °F - 55.0 °F 44% 30.15 in 10.0 mi West 4.6 mph - N/A   Clear
12:52 PM 81.0 °F 80.7 °F 55.0 °F 41% 30.14 in 10.0 mi West 5.8 mph - N/A   Clear
1:52 PM 82.0 °F 81.7 °F 57.0 °F 42% 30.14 in 10.0 mi Variable 3.5 mph - N/A   Clear
2:52 PM 84.9 °F 84.2 °F 57.9 °F 40% 30.12 in 10.0 mi WNW 4.6 mph - N/A   Clear
3:52 PM 84.9 °F 84.4 °F 59.0 °F 41% 30.11 in 10.0 mi WSW 5.8 mph - N/A   Clear
4:52 PM 84.9 °F 84.4 °F 59.0 °F 41% 30.09 in 10.0 mi WNW 5.8 mph - N/A   Clear
5:52 PM 82.0 °F 82.7 °F 61.0 °F 49% 30.09 in 10.0 mi SW 4.6 mph - N/A   Clear
6:52 PM 80.1 °F 82.3 °F 66.9 °F 64% 30.09 in 10.0 mi Calm Calm - N/A   Clear
7:52 PM 71.1 °F - 64.0 °F 78% 30.09 in 10.0 mi SSW 3.5 mph - N/A   Clear
8:52 PM 66.9 °F - 62.1 °F 84% 30.11 in 10.0 mi Calm Calm - N/A   Clear
9:52 PM 66.0 °F - 61.0 °F 84% 30.11 in 10.0 mi Calm Calm - N/A   Clear
10:52 PM 64.9 °F - 61.0 °F 87% 30.12 in 10.0 mi Calm Calm - N/A   Clear
11:52 PM 63.0 °F - 60.1 °F 90% 30.12 in 10.0 mi SW 3.5 mph - N/A   Clear